Weather History for K2WX - October, 2013

Change the Weather History Date:

Saturday, October 26, 2013

  Actual Average Record
Temperature  
Mean Temperature 45 °F 42 °F  
Max Temperature 63 °F 53 °F 75 °F (1999)
Min Temperature 27 °F 30 °F 9 °F (1997)
Degree Days  
Heating Degree Days 20 23  
Month to date heating degree days 547 488  
Since 1 July heating degree days 676 779  
Cooling Degree Days 0 0  
Month to date cooling degree days 0 0  
Year to date cooling degree days 587 512  
Moisture  
Dew Point 28 °F    
Average Humidity 54    
Maximum Humidity 79    
Minimum Humidity 29    
Precipitation  
Precipitation 0.00 in 0.03 in 0.12 in (2003)
Month to date precipitation 0.50 0.52  
Year to date precipitation 12.15 13.74  
Sea Level Pressure  
Sea Level Pressure 30.12 in    
Wind  
Wind Speed 8 mph (West)    
Max Wind Speed 17 mph    
Max Gust Speed 23 mph    
T = Trace of Precipitation, MM = Missing Value Source: NWS Daily Summary

Daily Weather History Graph

Daily Weather History Graph

Search for Another Location

Airport or City:

Trip Planner

Search our weather history database for the weather conditions in past years. The results will help you decide how hot, cold, wet, or windy it might be!

Date:

Astronomy

Oct. 26, 2013 Rise Set
Actual Time 7:25 AM MDT 5:49 PM MDT
Civil Twilight 6:55 AM MDT 6:20 PM MDT
Nautical Twilight 6:20 AM MDT 6:54 PM MDT
Astronomical Twilight 5:46 AM MDT 7:29 PM MDT
Moon No Moon Rise 1:45 PM MDT (10/26)
Length of Visible Light 11h 24m
Length of Day
10h 23m
Waning Gibbous, 52% of the Moon is Illuminated
Oct 26
Waning Gibbous
Oct 26
Last Quarter
Nov 3
New
Nov 9
First Quarter
Nov 17
Full

Hourly Weather History & Observations

Time (MDT) Temp. Windchill Dew Point Humidity Pressure Visibility Wind Dir Wind Speed Gust Speed Precip Events Conditions
12:56 AM 39.9 °F 31.4 °F 26.1 °F 58% 30.16 in - NNW 16.1 mph - N/A   Unknown
1:56 AM 37.0 °F 28.9 °F 23.0 °F 57% 30.17 in - NNW 12.7 mph - N/A   Unknown
2:56 AM 33.1 °F 24.4 °F 23.0 °F 66% 30.19 in - NW 11.5 mph - N/A   Unknown
3:56 AM 30.9 °F 22.8 °F 23.0 °F 72% 30.21 in - NW 9.2 mph - N/A   Unknown
4:56 AM 28.9 °F 25.2 °F 21.0 °F 72% 30.24 in - West 3.5 mph - N/A   Unknown
5:56 AM 32.0 °F 26.4 °F 21.0 °F 64% 30.24 in - WNW 5.8 mph - N/A   Unknown
6:56 AM 28.0 °F 24.2 °F 21.0 °F 75% 30.26 in - West 3.5 mph - N/A   Unknown
7:56 AM 28.0 °F 21.7 °F 21.0 °F 75% 30.26 in - WNW 5.8 mph - N/A   Unknown
8:56 AM 34.0 °F 31.0 °F 25.0 °F 70% 30.25 in - WNW 3.5 mph - N/A   Unknown
9:56 AM 39.9 °F - 24.1 °F 53% 30.24 in - Calm Calm - N/A   Unknown
10:56 AM 45.0 °F 41.8 °F 21.9 °F 40% 30.21 in - WSW 5.8 mph - N/A   Unknown
11:56 AM 48.0 °F - 21.9 °F 36% 30.21 in - WSW 4.6 mph - N/A   Unknown
12:56 PM 53.1 °F - 24.1 °F 32% 30.16 in - South 6.9 mph - N/A   Unknown
1:56 PM 60.1 °F - 28.0 °F 30% 30.10 in - WSW 11.5 mph 18.4 mph N/A   Unknown
2:56 PM 62.1 °F - 30.9 °F 31% 30.07 in - WSW 18.4 mph 23.0 mph N/A   Unknown
3:56 PM 62.1 °F - 32.0 °F 32% 30.04 in - SW 11.5 mph - N/A   Unknown
4:56 PM 62.1 °F - 34.0 °F 35% 30.01 in - WSW 9.2 mph - N/A   Unknown
5:56 PM 57.9 °F - 34.0 °F 41% 30.00 in - SSW 6.9 mph - N/A   Unknown
6:56 PM 48.9 °F - 36.0 °F 61% 30.02 in - South 10.4 mph - N/A   Unknown
7:56 PM 46.0 °F 43.1 °F 35.1 °F 66% 30.01 in - SW 5.8 mph - N/A   Unknown
8:56 PM 44.1 °F 40.1 °F 35.1 °F 71% 29.98 in - WSW 6.9 mph - N/A   Unknown
9:56 PM 43.0 °F 36.8 °F 34.0 °F 71% 29.94 in - West 11.5 mph - N/A   Unknown
10:56 PM 43.0 °F 37.7 °F 34.0 °F 71% 29.92 in - West 9.2 mph - N/A   Unknown
11:56 PM 39.9 °F 34.5 °F 33.1 °F 77% 29.89 in - West 8.1 mph - N/A   Unknown